Location: Unspecified
(0.0000°N, 0.0000°E)
Time: 06:32:24
(UTC+00:00)

BEESAT - Visible Passes

Search period start: 12 December 2019 00:00
Search period end: 22 December 2019 00:00
Orbit: 700 x 709 km, 98.6° (Epoch: 11 December)

Date Brightness Start Highest point End Pass type
(mag) Time Alt. Az. Time Alt. Az. Time Alt. Az.
13 Dec ? 04:39:23 10° SE 04:43:40 34° ENE 04:47:55 10° NNE visible
14 Dec ? 05:22:17 10° S 05:26:59 63° WSW 05:31:39 10° NNW visible
15 Dec ? 04:29:00 10° SE 04:32:49 24° ENE 04:36:36 10° NNE visible
16 Dec ? 05:11:22 10° SSE 05:16:07 89° WSW 05:20:51 10° NNW visible
17 Dec ? 04:18:51 10° ESE 04:21:58 17° ENE 04:25:02 10° NE visible
17 Dec ? 18:19:03 10° NW 18:21:01 12° WNW 18:22:59 10° WSW visible
18 Dec ? 05:00:34 10° SSE 05:05:16 65° ENE 05:09:57 10° N visible
19 Dec ? 04:09:14 10° E 04:11:06 12° ENE 04:12:58 10° NE visible
20 Dec ? 04:49:53 10° SSE 04:54:24 45° ENE 04:58:55 10° N visible
